Time,TemperatureF,DewpointF,PressureIn,WindDirection,WindDirectionDegrees,WindSpeedMPH,WindSpeedGustMPH,Humidity,HourlyPrecipIn,Conditions,Clouds,dailyrainin,SoftwareType,DateUTC
2013-10-20 00:01:00,51.5,40.1,30.00,NE,45,0.0,0.0,65,0.00,,,0.00,WUHU216HW,2013-10-20 07:01:00,
2013-10-20 00:06:00,51.3,39.9,30.00,NE,45,0.0,0.0,65,0.00,,,0.00,WUHU216HW,2013-10-20 07:06:00,
2013-10-20 00:11:00,51.1,39.7,30.00,NE,45,0.0,0.4,65,0.00,,,0.00,WUHU216HW,2013-10-20 07:11:00,
2013-10-20 00:16:00,51.1,40.2,30.00,NE,45,0.0,0.4,66,0.00,,,0.00,WUHU216HW,2013-10-20 07:16:00,
2013-10-20 00:21:00,50.9,40.0,30.00,NE,45,0.4,0.4,66,0.00,,,0.00,WUHU216HW,2013-10-20 07:21:00,
2013-10-20 00:26:00,50.8,39.8,29.99,NE,45,0.0,0.4,66,0.00,,,0.00,WUHU216HW,2013-10-20 07:26:00,
2013-10-20 00:31:00,50.8,39.8,29.99,NE,45,0.0,0.2,66,0.00,,,0.00,WUHU216HW,2013-10-20 07:31:00,
2013-10-20 00:36:00,50.6,40.1,29.99,NE,45,0.0,0.0,67,0.00,,,0.00,WUHU216HW,2013-10-20 07:36:00,
2013-10-20 00:41:00,50.4,39.4,29.99,NE,45,0.0,0.4,66,0.00,,,0.00,WUHU216HW,2013-10-20 07:41:00,
2013-10-20 00:46:00,50.0,39.1,29.99,NE,45,0.4,0.4,66,0.00,,,0.00,WUHU216HW,2013-10-20 07:46:00,
2013-10-20 00:51:00,50.0,39.5,29.99,NE,45,0.4,0.4,67,0.00,,,0.00,WUHU216HW,2013-10-20 07:51:00,
2013-10-20 00:56:00,49.9,39.3,29.99,NE,45,0.0,0.4,67,0.00,,,0.00,WUHU216HW,2013-10-20 07:56:00,
2013-10-20 01:01:00,49.7,39.2,29.99,NE,45,0.0,0.0,67,0.00,,,0.00,WUHU216HW,2013-10-20 08:01:00,
2013-10-20 01:06:00,49.7,39.2,29.99,NE,45,0.0,0.0,67,0.00,,,0.00,WUHU216HW,2013-10-20 08:06:00,
2013-10-20 01:11:00,49.5,39.3,29.99,NE,45,0.4,0.4,68,0.00,,,0.00,WUHU216HW,2013-10-20 08:11:00,
2013-10-20 01:16:00,49.3,39.2,29.99,NE,45,0.0,0.4,68,0.00,,,0.00,WUHU216HW,2013-10-20 08:16:00,
2013-10-20 01:21:00,49.3,39.2,29.99,NE,45,0.0,0.4,68,0.00,,,0.00,WUHU216HW,2013-10-20 08:21:00,
2013-10-20 01:26:00,49.1,39.4,29.99,NE,45,0.0,0.4,69,0.00,,,0.00,WUHU216HW,2013-10-20 08:26:00,
2013-10-20 01:31:00,49.1,39.4,29.99,NE,45,0.0,0.4,69,0.00,,,0.00,WUHU216HW,2013-10-20 08:31:00,
2013-10-20 01:36:00,49.0,39.3,29.99,NE,45,0.2,0.2,69,0.00,,,0.00,WUHU216HW,2013-10-20 08:36:00,
2013-10-20 01:41:00,48.6,39.2,29.99,NE,45,0.2,0.4,70,0.00,,,0.00,WUHU216HW,2013-10-20 08:41:00,
2013-10-20 01:46:00,48.6,39.2,29.99,NE,45,0.4,0.4,70,0.00,,,0.00,WUHU216HW,2013-10-20 08:46:00,
2013-10-20 01:51:00,48.6,39.2,29.99,ENE,68,0.4,0.4,70,0.00,,,0.00,WUHU216HW,2013-10-20 08:51:00,
2013-10-20 01:56:00,48.4,39.1,29.99,ENE,68,0.0,0.4,70,0.00,,,0.00,WUHU216HW,2013-10-20 08:56:00,
2013-10-20 02:01:00,48.2,38.9,29.99,ENE,68,0.0,0.4,70,0.00,,,0.00,WUHU216HW,2013-10-20 09:01:00,
2013-10-20 02:06:00,48.1,38.7,29.99,ENE,68,0.0,0.0,70,0.00,,,0.00,WUHU216HW,2013-10-20 09:06:00,
2013-10-20 02:11:00,47.9,38.5,29.99,ENE,68,0.2,0.2,70,0.00,,,0.00,WUHU216HW,2013-10-20 09:11:00,
2013-10-20 02:16:00,47.9,38.9,29.99,ENE,68,0.0,0.4,71,0.00,,,0.00,WUHU216HW,2013-10-20 09:16:00,
2013-10-20 02:21:00,47.7,38.7,29.99,ENE,68,0.4,0.4,71,0.00,,,0.00,WUHU216HW,2013-10-20 09:21:00,
2013-10-20 02:26:00,47.5,38.9,29.99,ENE,68,0.7,0.7,72,0.00,,,0.00,WUHU216HW,2013-10-20 09:26:00,
2013-10-20 02:31:00,47.5,38.9,29.99,ENE,68,0.2,0.7,72,0.00,,,0.00,WUHU216HW,2013-10-20 09:31:00,
2013-10-20 02:36:00,47.5,38.9,29.98,ENE,68,0.0,0.4,72,0.00,,,0.00,WUHU216HW,2013-10-20 09:36:00,
2013-10-20 02:41:00,47.3,38.8,29.98,ENE,68,0.0,0.0,72,0.00,,,0.00,WUHU216HW,2013-10-20 09:41:00,
2013-10-20 02:46:00,47.2,38.6,29.98,ENE,68,0.0,0.0,72,0.00,,,0.00,WUHU216HW,2013-10-20 09:46:00,
2013-10-20 02:51:00,47.2,38.6,29.98,ENE,68,0.0,0.4,72,0.00,,,0.00,WUHU216HW,2013-10-20 09:51:00,
2013-10-20 02:56:00,47.0,38.4,29.98,NE,45,0.4,0.4,72,0.00,,,0.00,WUHU216HW,2013-10-20 09:56:00,
2013-10-20 03:01:00,46.8,38.3,29.98,NE,45,0.0,0.4,72,0.00,,,0.00,WUHU216HW,2013-10-20 10:01:00,
2013-10-20 03:06:00,46.8,38.3,29.98,NE,45,0.0,0.4,72,0.00,,,0.00,WUHU216HW,2013-10-20 10:06:00,
2013-10-20 03:11:00,46.8,39.0,29.98,NE,45,0.0,0.0,74,0.00,,,0.00,WUHU216HW,2013-10-20 10:11:00,
2013-10-20 03:16:00,46.6,38.8,29.98,NE,45,0.0,0.0,74,0.00,,,0.00,WUHU216HW,2013-10-20 10:16:00,
2013-10-20 03:21:00,46.6,39.2,29.97,NE,45,0.4,0.4,75,0.00,,,0.00,WUHU216HW,2013-10-20 10:21:00,
2013-10-20 03:26:00,46.4,38.6,29.97,ENE,68,0.4,0.7,74,0.00,,,0.00,WUHU216HW,2013-10-20 10:26:00,
2013-10-20 03:31:00,46.4,38.6,29.97,East,90,0.2,0.7,74,0.00,,,0.00,WUHU216HW,2013-10-20 10:31:00,
2013-10-20 03:36:00,46.4,38.6,29.97,East,90,0.0,0.4,74,0.00,,,0.00,WUHU216HW,2013-10-20 10:36:00,
2013-10-20 03:41:00,46.1,38.3,29.97,East,90,0.0,0.0,74,0.00,,,0.00,WUHU216HW,2013-10-20 10:41:00,
2013-10-20 03:46:00,46.1,38.6,29.97,East,90,0.0,0.0,75,0.00,,,0.00,WUHU216HW,2013-10-20 10:46:00,
2013-10-20 03:51:00,45.9,38.4,29.97,East,90,0.0,0.0,75,0.00,,,0.00,WUHU216HW,2013-10-20 10:51:00,
2013-10-20 03:56:00,45.7,38.3,29.97,East,90,0.4,0.4,75,0.00,,,0.00,WUHU216HW,2013-10-20 10:56:00,
2013-10-20 04:01:00,45.7,38.3,29.97,ENE,68,0.2,0.4,75,0.00,,,0.00,WUHU216HW,2013-10-20 11:01:00,
2013-10-20 04:06:00,45.5,38.1,29.97,ENE,68,0.0,0.4,75,0.00,,,0.00,WUHU216HW,2013-10-20 11:06:00,
2013-10-20 04:11:00,45.5,38.4,29.96,ENE,68,0.0,0.0,76,0.00,,,0.00,WUHU216HW,2013-10-20 11:11:00,
2013-10-20 04:16:00,45.5,38.8,29.96,ENE,68,0.0,0.0,77,0.00,,,0.00,WUHU216HW,2013-10-20 11:16:00,
2013-10-20 04:21:00,45.4,38.3,29.96,ENE,68,0.0,0.0,76,0.00,,,0.00,WUHU216HW,2013-10-20 11:21:00,
2013-10-20 04:26:00,45.2,38.1,29.96,ENE,68,0.0,0.0,76,0.00,,,0.00,WUHU216HW,2013-10-20 11:26:00,
2013-10-20 04:31:00,45.2,38.1,29.96,ENE,68,0.2,0.4,76,0.00,,,0.00,WUHU216HW,2013-10-20 11:31:00,
2013-10-20 04:36:00,45.0,37.9,29.96,ENE,68,0.0,0.4,76,0.00,,,0.00,WUHU216HW,2013-10-20 11:36:00,
2013-10-20 04:41:00,45.0,37.9,29.97,ENE,68,0.2,0.2,76,0.00,,,0.00,WUHU216HW,2013-10-20 11:41:00,
2013-10-20 04:46:00,44.8,37.7,29.96,ENE,68,0.2,0.4,76,0.00,,,0.00,WUHU216HW,2013-10-20 11:46:00,
2013-10-20 04:51:00,44.8,37.7,29.96,ENE,68,0.0,0.4,76,0.00,,,0.00,WUHU216HW,2013-10-20 11:51:00,
2013-10-20 04:56:00,44.8,37.7,29.96,ENE,68,0.0,0.4,76,0.00,,,0.00,WUHU216HW,2013-10-20 11:56:00,
2013-10-20 05:01:00,44.6,37.9,29.96,ENE,68,0.4,0.4,77,0.00,,,0.00,WUHU216HW,2013-10-20 12:01:00,
2013-10-20 05:06:00,44.5,37.7,29.96,ENE,68,0.0,0.4,77,0.00,,,0.00,WUHU216HW,2013-10-20 12:06:00,
2013-10-20 05:11:00,44.5,38.3,29.96,ENE,68,0.7,0.7,79,0.00,,,0.00,WUHU216HW,2013-10-20 12:11:00,
2013-10-20 05:16:00,44.6,38.9,29.96,ENE,68,0.4,0.7,80,0.00,,,0.00,WUHU216HW,2013-10-20 12:16:00,
2013-10-20 05:21:00,44.6,38.5,29.96,ENE,68,0.0,0.7,79,0.00,,,0.00,WUHU216HW,2013-10-20 12:21:00,
2013-10-20 05:26:00,44.5,38.0,29.96,ENE,68,0.0,0.0,78,0.00,,,0.00,WUHU216HW,2013-10-20 12:26:00,
2013-10-20 05:31:00,44.5,38.0,29.96,ENE,68,0.0,0.0,78,0.00,,,0.00,WUHU216HW,2013-10-20 12:31:00,
2013-10-20 05:36:00,44.3,37.8,29.96,ENE,68,0.0,0.0,78,0.00,,,0.00,WUHU216HW,2013-10-20 12:36:00,
2013-10-20 05:41:00,44.1,37.7,29.96,ENE,68,0.0,0.0,78,0.00,,,0.00,WUHU216HW,2013-10-20 12:41:00,
2013-10-20 05:46:00,44.1,37.7,29.96,ENE,68,0.0,0.0,78,0.00,,,0.00,WUHU216HW,2013-10-20 12:46:00,
2013-10-20 05:51:00,43.9,37.5,29.96,ENE,68,0.0,0.2,78,0.00,,,0.00,WUHU216HW,2013-10-20 12:51:00,
2013-10-20 05:56:00,43.7,37.4,29.96,ENE,68,0.0,0.2,78,0.00,,,0.00,WUHU216HW,2013-10-20 12:56:00,
2013-10-20 06:01:00,43.7,37.6,29.96,ENE,68,0.0,0.0,79,0.00,,,0.00,WUHU216HW,2013-10-20 13:01:00,
2013-10-20 06:06:00,43.7,37.6,29.97,ENE,68,0.2,0.2,79,0.00,,,0.00,WUHU216HW,2013-10-20 13:06:00,
2013-10-20 06:11:00,43.7,37.6,29.97,ENE,68,0.0,0.2,79,0.00,,,0.00,WUHU216HW,2013-10-20 13:11:00,
2013-10-20 06:16:00,43.6,37.4,29.97,ENE,68,0.0,0.0,79,0.00,,,0.00,WUHU216HW,2013-10-20 13:16:00,
2013-10-20 06:21:00,43.6,37.4,29.97,ENE,68,0.0,0.0,79,0.00,,,0.00,WUHU216HW,2013-10-20 13:21:00,
2013-10-20 06:26:00,43.6,37.4,29.97,ENE,68,0.0,0.0,79,0.00,,,0.00,WUHU216HW,2013-10-20 13:26:00,
2013-10-20 06:31:00,43.6,37.4,29.97,ENE,68,0.0,0.0,79,0.00,,,0.00,WUHU216HW,2013-10-20 13:31:00,
2013-10-20 06:36:00,43.4,37.6,29.97,ENE,68,0.0,0.4,80,0.00,,,0.00,WUHU216HW,2013-10-20 13:36:00,
2013-10-20 06:41:00,43.2,37.4,29.97,ENE,68,0.0,0.4,80,0.00,,,0.00,WUHU216HW,2013-10-20 13:41:00,
2013-10-20 06:46:00,43.2,37.4,29.97,ENE,68,0.0,0.0,80,0.00,,,0.00,WUHU216HW,2013-10-20 13:46:00,
2013-10-20 06:51:00,43.0,37.3,29.97,ENE,68,0.0,0.0,80,0.00,,,0.00,WUHU216HW,2013-10-20 13:51:00,
2013-10-20 06:56:00,43.0,37.3,29.97,ENE,68,0.0,0.0,80,0.00,,,0.00,WUHU216HW,2013-10-20 13:56:00,
2013-10-20 07:01:00,42.8,37.1,29.97,ENE,68,0.0,0.0,80,0.00,,,0.00,WUHU216HW,2013-10-20 14:01:00,
2013-10-20 07:06:00,42.8,37.1,29.97,ENE,68,0.4,0.4,80,0.00,,,0.00,WUHU216HW,2013-10-20 14:06:00,
2013-10-20 07:11:00,42.8,37.1,29.97,NE,45,0.2,0.4,80,0.00,,,0.00,WUHU216HW,2013-10-20 14:11:00,
2013-10-20 07:16:00,42.7,37.2,29.97,NE,45,0.4,0.4,81,0.00,,,0.00,WUHU216HW,2013-10-20 14:16:00,
2013-10-20 07:21:00,42.7,37.2,29.97,NE,45,0.0,0.4,81,0.00,,,0.00,WUHU216HW,2013-10-20 14:21:00,
2013-10-20 07:26:00,42.7,37.2,29.97,NE,45,0.0,0.4,81,0.00,,,0.00,WUHU216HW,2013-10-20 14:26:00,
2013-10-20 07:31:00,42.5,37.0,29.97,NE,45,0.0,0.0,81,0.00,,,0.00,WUHU216HW,2013-10-20 14:31:00,
2013-10-20 07:36:00,42.5,37.0,29.97,NE,45,0.0,0.0,81,0.00,,,0.00,WUHU216HW,2013-10-20 14:36:00,
2013-10-20 07:41:00,42.5,37.4,29.97,ENE,68,0.4,0.4,82,0.00,,,0.00,WUHU216HW,2013-10-20 14:41:00,
2013-10-20 07:46:00,42.5,37.4,29.97,ENE,68,0.0,0.7,82,0.00,,,0.00,WUHU216HW,2013-10-20 14:46:00,
2013-10-20 07:51:00,42.5,37.4,29.97,ENE,68,0.0,0.7,82,0.00,,,0.00,WUHU216HW,2013-10-20 14:51:00,
2013-10-20 07:56:00,42.7,37.5,29.97,ENE,68,0.0,0.4,82,0.00,,,0.00,WUHU216HW,2013-10-20 14:56:00,
2013-10-20 08:01:00,42.7,37.5,29.97,ENE,68,0.0,0.0,82,0.00,,,0.00,WUHU216HW,2013-10-20 15:01:00,
2013-10-20 08:06:00,42.8,38.0,29.97,ENE,68,0.0,0.0,83,0.00,,,0.00,WUHU216HW,2013-10-20 15:06:00,
2013-10-20 08:11:00,42.8,38.0,29.98,ENE,68,0.0,0.4,83,0.00,,,0.00,WUHU216HW,2013-10-20 15:11:00,
2013-10-20 08:16:00,43.0,38.2,29.98,East,90,0.4,0.4,83,0.00,,,0.00,WUHU216HW,2013-10-20 15:16:00,
2013-10-20 08:21:00,43.2,38.3,29.98,East,90,0.4,0.4,83,0.00,,,0.00,WUHU216HW,2013-10-20 15:21:00,
2013-10-20 08:26:00,43.6,39.1,29.98,ESE,113,0.4,0.7,84,0.00,,,0.00,WUHU216HW,2013-10-20 15:26:00,
2013-10-20 08:31:00,44.1,39.6,29.98,SE,135,0.0,0.9,84,0.00,,,0.00,WUHU216HW,2013-10-20 15:31:00,
2013-10-20 08:36:00,45.0,40.8,29.98,SE,135,0.4,1.6,85,0.00,,,0.00,WUHU216HW,2013-10-20 15:36:00,
2013-10-20 08:41:00,46.1,41.6,29.98,ENE,68,0.4,1.6,84,0.00,,,0.00,WUHU216HW,2013-10-20 15:41:00,
2013-10-20 08:46:00,46.6,41.8,29.98,ENE,68,0.0,0.9,83,0.00,,,0.00,WUHU216HW,2013-10-20 15:46:00,
2013-10-20 08:51:00,47.2,42.3,29.98,ENE,68,0.2,0.4,83,0.00,,,0.00,WUHU216HW,2013-10-20 15:51:00,
2013-10-20 08:56:00,47.9,42.7,29.98,NE,45,0.0,0.4,82,0.00,,,0.00,WUHU216HW,2013-10-20 15:56:00,
2013-10-20 09:01:00,48.8,43.2,29.98,South,180,0.4,0.4,81,0.00,,,0.00,WUHU216HW,2013-10-20 16:01:00,
2013-10-20 09:06:00,50.4,44.1,29.98,South,180,0.7,0.7,79,0.00,,,0.00,WUHU216HW,2013-10-20 16:06:00,
2013-10-20 09:11:00,52.2,44.6,29.98,South,180,0.4,1.1,75,0.00,,,0.00,WUHU216HW,2013-10-20 16:11:00,
2013-10-20 09:16:00,54.2,45.4,29.98,South,180,1.1,1.1,72,0.00,,,0.00,WUHU216HW,2013-10-20 16:16:00,
2013-10-20 09:21:00,56.2,46.2,29.98,SSE,158,0.0,1.1,69,0.00,,,0.00,WUHU216HW,2013-10-20 16:21:00,
2013-10-20 09:26:00,57.8,46.4,29.98,South,180,0.2,1.1,66,0.00,,,0.00,WUHU216HW,2013-10-20 16:26:00,
2013-10-20 09:31:00,58.3,46.2,29.98,South,180,0.2,0.4,64,0.00,,,0.00,WUHU216HW,2013-10-20 16:31:00,
2013-10-20 09:36:00,58.3,45.7,29.98,SSW,203,1.1,1.1,63,0.00,,,0.00,WUHU216HW,2013-10-20 16:36:00,
2013-10-20 09:37:00,58.7,46.1,29.98,WSW,248,0.7,1.1,63,0.00,,,0.00,WUHU216HW,2013-10-20 16:37:00,
2013-10-20 09:42:00,59.0,46.0,29.98,SSW,203,1.1,1.8,62,0.00,,,0.00,WUHU216HW,2013-10-20 16:42:00,
2013-10-20 09:47:00,60.1,47.1,29.98,West,270,0.7,1.8,62,0.00,,,0.00,WUHU216HW,2013-10-20 16:47:00,
2013-10-20 09:52:00,61.9,46.5,29.98,South,180,1.1,1.1,57,0.00,,,0.00,WUHU216HW,2013-10-20 16:52:00,
2013-10-20 09:57:00,63.0,47.0,29.98,SSW,203,0.4,1.1,56,0.00,,,0.00,WUHU216HW,2013-10-20 16:57:00,
2013-10-20 10:02:00,63.0,46.5,29.98,SE,135,0.0,1.1,55,0.00,,,0.00,WUHU216HW,2013-10-20 17:02:00,
2013-10-20 10:07:00,63.2,47.2,29.98,SE,135,0.2,1.1,56,0.00,,,0.00,WUHU216HW,2013-10-20 17:07:00,
2013-10-20 10:12:00,63.4,45.8,29.98,SSE,158,1.6,1.6,53,0.00,,,0.00,WUHU216HW,2013-10-20 17:12:00,
2013-10-20 10:17:00,63.2,45.7,29.98,ESE,113,0.2,1.6,53,0.00,,,0.00,WUHU216HW,2013-10-20 17:17:00,
2013-10-20 10:22:00,63.0,45.0,29.98,South,180,0.9,1.3,52,0.00,,,0.00,WUHU216HW,2013-10-20 17:22:00,
2013-10-20 10:27:00,63.4,45.8,29.97,WSW,248,0.7,1.1,53,0.00,,,0.00,WUHU216HW,2013-10-20 17:27:00,
2013-10-20 10:32:00,63.7,46.2,29.97,West,270,0.9,1.1,53,0.00,,,0.00,WUHU216HW,2013-10-20 17:32:00,
2013-10-20 10:37:00,64.3,45.7,29.97,SSW,203,0.4,1.1,51,0.00,,,0.00,WUHU216HW,2013-10-20 17:37:00,
2013-10-20 10:42:00,64.6,45.5,29.97,South,180,1.1,1.1,50,0.00,,,0.00,WUHU216HW,2013-10-20 17:42:00,
2013-10-20 10:47:00,65.0,45.9,29.97,WSW,248,1.1,1.3,50,0.00,,,0.00,WUHU216HW,2013-10-20 17:47:00,
2013-10-20 10:52:00,65.2,44.4,29.97,SSW,203,1.1,2.5,47,0.00,,,0.00,WUHU216HW,2013-10-20 17:52:00,
2013-10-20 10:57:00,65.7,45.5,29.97,WNW,293,0.9,2.5,48,0.00,,,0.00,WUHU216HW,2013-10-20 17:57:00,
2013-10-20 11:02:00,66.2,46.0,29.97,West,270,1.3,1.3,48,0.00,,,0.00,WUHU216HW,2013-10-20 18:02:00,
2013-10-20 11:07:00,66.8,45.9,29.96,ESE,113,0.4,1.3,47,0.00,,,0.00,WUHU216HW,2013-10-20 18:07:00,
2013-10-20 11:12:00,67.3,45.7,29.96,East,90,0.9,1.6,46,0.00,,,0.00,WUHU216HW,2013-10-20 18:12:00,
2013-10-20 11:17:00,67.7,45.5,29.97,WSW,248,0.9,1.6,45,0.00,,,0.00,WUHU216HW,2013-10-20 18:17:00,
2013-10-20 11:22:00,68.2,46.0,29.96,ESE,113,0.0,1.3,45,0.00,,,0.00,WUHU216HW,2013-10-20 18:22:00,
2013-10-20 11:27:00,68.8,47.1,29.96,SE,135,0.4,1.1,46,0.00,,,0.00,WUHU216HW,2013-10-20 18:27:00,
2013-10-20 11:32:00,69.1,48.0,29.96,WSW,248,0.0,0.9,47,0.00,,,0.00,WUHU216HW,2013-10-20 18:32:00,
2013-10-20 11:37:00,69.7,47.3,29.96,NNE,23,2.2,2.2,45,0.00,,,0.00,WUHU216HW,2013-10-20 18:37:00,
2013-10-20 11:42:00,70.2,47.8,29.96,East,90,0.9,2.2,45,0.00,,,0.00,WUHU216HW,2013-10-20 18:42:00,
2013-10-20 11:47:00,70.9,44.7,29.96,South,180,1.3,2.5,39,0.00,,,0.00,WUHU216HW,2013-10-20 18:47:00,
2013-10-20 11:52:00,71.5,46.5,29.95,SSE,158,0.0,2.5,41,0.00,,,0.00,WUHU216HW,2013-10-20 18:52:00,
2013-10-20 11:57:00,72.0,47.0,29.95,South,180,0.0,1.8,41,0.00,,,0.00,WUHU216HW,2013-10-20 18:57:00,
2013-10-20 12:02:00,72.4,45.3,29.95,SW,225,0.9,1.1,38,0.00,,,0.00,WUHU216HW,2013-10-20 19:02:00,
2013-10-20 12:07:00,72.9,45.0,29.95,SW,225,0.2,1.8,37,0.00,,,0.00,WUHU216HW,2013-10-20 19:07:00,
2013-10-20 12:12:00,73.6,45.6,29.95,WSW,248,1.8,2.2,37,0.00,,,0.00,WUHU216HW,2013-10-20 19:12:00,
2013-10-20 12:17:00,74.2,45.4,29.95,West,270,1.1,2.2,36,0.00,,,0.00,WUHU216HW,2013-10-20 19:17:00,
2013-10-20 12:22:00,74.5,44.1,29.95,SSW,203,1.3,2.5,34,0.00,,,0.00,WUHU216HW,2013-10-20 19:22:00,
2013-10-20 12:27:00,74.9,46.7,29.94,West,270,2.5,2.5,37,0.00,,,0.00,WUHU216HW,2013-10-20 19:27:00,
2013-10-20 12:32:00,75.4,45.7,29.94,SSW,203,0.7,2.5,35,0.00,,,0.00,WUHU216HW,2013-10-20 19:32:00,
2013-10-20 12:37:00,76.0,46.2,29.94,SW,225,0.7,1.8,35,0.00,,,0.00,WUHU216HW,2013-10-20 19:37:00,
2013-10-20 12:42:00,76.3,46.5,29.94,NW,315,0.9,1.8,35,0.00,,,0.00,WUHU216HW,2013-10-20 19:42:00,
2013-10-20 12:47:00,76.9,46.3,29.94,WNW,293,1.6,2.9,34,0.00,,,0.00,WUHU216HW,2013-10-20 19:47:00,
2013-10-20 12:52:00,77.2,45.8,29.93,West,270,0.9,4.5,33,0.00,,,0.00,WUHU216HW,2013-10-20 19:52:00,
2013-10-20 12:57:00,77.6,46.1,29.93,SSW,203,1.1,4.5,33,0.00,,,0.00,WUHU216HW,2013-10-20 19:57:00,
2013-10-20 13:02:00,78.1,47.4,29.93,West,270,0.7,3.4,34,0.00,,,0.00,WUHU216HW,2013-10-20 20:02:00,
2013-10-20 13:07:00,78.3,45.9,29.93,WNW,293,2.0,2.7,32,0.00,,,0.00,WUHU216HW,2013-10-20 20:07:00,
2013-10-20 13:12:00,78.5,46.8,29.92,WSW,248,2.2,2.5,33,0.00,,,0.00,WUHU216HW,2013-10-20 20:12:00,
2013-10-20 13:17:00,78.8,46.4,29.92,SSW,203,1.1,3.1,32,0.00,,,0.00,WUHU216HW,2013-10-20 20:17:00,
2013-10-20 13:22:00,79.4,46.9,29.92,WNW,293,1.1,3.1,32,0.00,,,0.00,WUHU216HW,2013-10-20 20:22:00,
2013-10-20 13:27:00,79.9,46.5,29.92,North,0,1.1,3.1,31,0.00,,,0.00,WUHU216HW,2013-10-20 20:27:00,
2013-10-20 13:32:00,79.9,45.8,29.92,NE,45,0.4,2.9,30,0.00,,,0.00,WUHU216HW,2013-10-20 20:32:00,
2013-10-20 13:37:00,80.3,46.9,29.91,WNW,293,1.1,2.9,31,0.00,,,0.00,WUHU216HW,2013-10-20 20:37:00,
2013-10-20 13:42:00,80.5,47.1,29.91,East,90,0.2,2.2,31,0.00,,,0.00,WUHU216HW,2013-10-20 20:42:00,
2013-10-20 13:47:00,80.8,46.6,29.91,West,270,4.0,4.0,30,0.00,,,0.00,WUHU216HW,2013-10-20 20:47:00,
2013-10-20 13:52:00,81.0,46.7,29.90,NNW,338,2.0,4.0,30,0.00,,,0.00,WUHU216HW,2013-10-20 20:52:00,
2013-10-20 13:57:00,81.4,47.8,29.90,WNW,293,2.0,3.1,31,0.00,,,0.00,WUHU216HW,2013-10-20 20:57:00,
2013-10-20 14:02:00,81.7,48.1,29.90,West,270,2.5,2.9,31,0.00,,,0.00,WUHU216HW,2013-10-20 21:02:00,
2013-10-20 14:07:00,82.1,47.6,29.90,WNW,293,4.0,4.0,30,0.00,,,0.00,WUHU216HW,2013-10-20 21:07:00,
2013-10-20 14:12:00,82.4,48.7,29.90,North,0,0.7,4.9,31,0.00,,,0.00,WUHU216HW,2013-10-20 21:12:00,
2013-10-20 14:17:00,82.6,48.9,29.89,West,270,2.5,4.9,31,0.00,,,0.00,WUHU216HW,2013-10-20 21:17:00,
2013-10-20 14:22:00,83.0,50.0,29.89,WNW,293,2.0,2.5,32,0.00,,,0.00,WUHU216HW,2013-10-20 21:22:00,
2013-10-20 14:27:00,83.2,49.3,29.89,West,270,1.3,4.7,31,0.00,,,0.00,WUHU216HW,2013-10-20 21:27:00,
2013-10-20 14:32:00,83.3,48.7,29.89,NNE,23,1.3,4.7,30,0.00,,,0.00,WUHU216HW,2013-10-20 21:32:00,
2013-10-20 14:37:00,83.3,48.7,29.89,NW,315,5.4,5.4,30,0.00,,,0.00,WUHU216HW,2013-10-20 21:37:00,
2013-10-20 14:42:00,83.5,48.9,29.88,West,270,4.9,6.5,30,0.00,,,0.00,WUHU216HW,2013-10-20 21:42:00,
2013-10-20 14:47:00,83.5,48.9,29.89,NNW,338,0.4,6.5,30,0.00,,,0.00,WUHU216HW,2013-10-20 21:47:00,
2013-10-20 14:52:00,83.9,49.1,29.89,WSW,248,1.8,5.4,30,0.00,,,0.00,WUHU216HW,2013-10-20 21:52:00,
2013-10-20 14:57:00,84.1,49.3,29.89,WNW,293,2.2,5.4,30,0.00,,,0.00,WUHU216HW,2013-10-20 21:57:00,
2013-10-20 15:02:00,84.2,48.4,29.89,WNW,293,4.3,6.9,29,0.00,,,0.00,WUHU216HW,2013-10-20 22:02:00,
2013-10-20 15:07:00,84.2,48.4,29.88,West,270,1.3,6.9,29,0.00,,,0.00,WUHU216HW,2013-10-20 22:07:00,
2013-10-20 15:12:00,84.1,49.3,29.88,WNW,293,3.4,5.4,30,0.00,,,0.00,WUHU216HW,2013-10-20 22:12:00,
2013-10-20 15:17:00,84.1,48.2,29.88,SW,225,3.4,5.4,29,0.00,,,0.00,WUHU216HW,2013-10-20 22:17:00,
2013-10-20 15:22:00,83.9,48.2,29.88,West,270,1.8,4.0,29,0.00,,,0.00,WUHU216HW,2013-10-20 22:22:00,
2013-10-20 15:27:00,83.9,49.1,29.88,WNW,293,4.3,4.3,30,0.00,,,0.00,WUHU216HW,2013-10-20 22:27:00,
2013-10-20 15:32:00,83.9,49.1,29.88,WSW,248,1.1,6.3,30,0.00,,,0.00,WUHU216HW,2013-10-20 22:32:00,
2013-10-20 15:37:00,83.9,49.1,29.88,WSW,248,4.7,6.3,30,0.00,,,0.00,WUHU216HW,2013-10-20 22:37:00,
2013-10-20 15:42:00,83.9,49.1,29.88,SW,225,4.3,4.9,30,0.00,,,0.00,WUHU216HW,2013-10-20 22:42:00,
2013-10-20 15:47:00,83.7,48.0,29.88,South,180,2.2,5.8,29,0.00,,,0.00,WUHU216HW,2013-10-20 22:47:00,
2013-10-20 15:52:00,83.3,46.6,29.88,West,270,2.5,5.8,28,0.00,,,0.00,WUHU216HW,2013-10-20 22:52:00,
2013-10-20 15:57:00,83.3,47.6,29.88,West,270,3.6,5.4,29,0.00,,,0.00,WUHU216HW,2013-10-20 22:57:00,
2013-10-20 16:02:00,83.3,47.6,29.88,WNW,293,2.7,5.4,29,0.00,,,0.00,WUHU216HW,2013-10-20 23:02:00,
2013-10-20 16:07:00,83.2,47.5,29.88,West,270,3.6,5.4,29,0.00,,,0.00,WUHU216HW,2013-10-20 23:07:00,
2013-10-20 16:12:00,83.2,48.5,29.88,WSW,248,2.7,3.8,30,0.00,,,0.00,WUHU216HW,2013-10-20 23:12:00,
2013-10-20 16:17:00,83.0,48.3,29.88,WNW,293,3.6,4.0,30,0.00,,,0.00,WUHU216HW,2013-10-20 23:17:00,
2013-10-20 16:22:00,82.8,49.0,29.88,West,270,2.7,4.7,31,0.00,,,0.00,WUHU216HW,2013-10-20 23:22:00,
2013-10-20 16:27:00,82.4,48.7,29.88,WSW,248,2.2,4.7,31,0.00,,,0.00,WUHU216HW,2013-10-20 23:27:00,
2013-10-20 16:32:00,82.1,48.4,29.88,SSW,203,5.6,5.6,31,0.00,,,0.00,WUHU216HW,2013-10-20 23:32:00,
2013-10-20 16:37:00,81.7,48.9,29.88,SW,225,4.0,5.6,32,0.00,,,0.00,WUHU216HW,2013-10-20 23:37:00,
2013-10-20 16:42:00,81.4,47.8,29.88,West,270,4.0,7.8,31,0.00,,,0.00,WUHU216HW,2013-10-20 23:42:00,
2013-10-20 16:47:00,81.2,48.4,29.87,West,270,5.1,7.8,32,0.00,,,0.00,WUHU216HW,2013-10-20 23:47:00,
2013-10-20 16:52:00,81.0,47.5,29.87,West,270,3.6,5.6,31,0.00,,,0.00,WUHU216HW,2013-10-20 23:52:00,
2013-10-20 16:57:00,80.6,48.0,29.87,SW,225,3.4,5.6,32,0.00,,,0.00,WUHU216HW,2013-10-20 23:57:00,
2013-10-20 17:02:00,80.5,47.1,29.87,WSW,248,6.5,6.5,31,0.00,,,0.00,WUHU216HW,2013-10-21 00:02:00,
2013-10-20 17:07:00,80.1,46.7,29.87,WNW,293,2.9,6.5,31,0.00,,,0.00,WUHU216HW,2013-10-21 00:07:00,
2013-10-20 17:12:00,79.9,46.5,29.87,WSW,248,4.0,4.0,31,0.00,,,0.00,WUHU216HW,2013-10-21 00:12:00,
2013-10-20 17:17:00,79.6,46.3,29.87,West,270,2.2,4.0,31,0.00,,,0.00,WUHU216HW,2013-10-21 00:17:00,
2013-10-20 17:22:00,79.4,46.9,29.87,WSW,248,4.0,4.0,32,0.00,,,0.00,WUHU216HW,2013-10-21 00:22:00,
2013-10-20 17:27:00,78.8,46.4,29.87,WSW,248,2.5,4.3,32,0.00,,,0.00,WUHU216HW,2013-10-21 00:27:00,
2013-10-20 17:32:00,78.7,46.3,29.87,West,270,5.1,5.1,32,0.00,,,0.00,WUHU216HW,2013-10-21 00:32:00,
2013-10-20 17:37:00,78.1,45.8,29.87,WNW,293,1.3,5.1,32,0.00,,,0.00,WUHU216HW,2013-10-21 00:37:00,
2013-10-20 17:42:00,77.8,45.5,29.87,West,270,2.7,4.7,32,0.00,,,0.00,WUHU216HW,2013-10-21 00:42:00,
2013-10-20 17:47:00,77.4,45.2,29.87,NW,315,1.8,4.7,32,0.00,,,0.00,WUHU216HW,2013-10-21 00:47:00,
2013-10-20 17:52:00,76.9,45.5,29.87,SW,225,2.0,3.6,33,0.00,,,0.00,WUHU216HW,2013-10-21 00:52:00,
2013-10-20 17:57:00,76.3,45.0,29.87,West,270,0.4,3.6,33,0.00,,,0.00,WUHU216HW,2013-10-21 00:57:00,
2013-10-20 18:02:00,76.0,44.6,29.87,WNW,293,4.0,4.9,33,0.00,,,0.00,WUHU216HW,2013-10-21 01:02:00,
2013-10-20 18:07:00,75.4,44.9,29.87,WNW,293,1.1,4.9,34,0.00,,,0.00,WUHU216HW,2013-10-21 01:07:00,
2013-10-20 18:12:00,75.1,44.7,29.87,NW,315,1.1,2.9,34,0.00,,,0.00,WUHU216HW,2013-10-21 01:12:00,
2013-10-20 18:17:00,74.3,44.7,29.87,NNE,23,0.2,2.9,35,0.00,,,0.00,WUHU216HW,2013-10-21 01:17:00,
2013-10-20 18:22:00,73.8,45.7,29.87,NE,45,0.4,2.9,37,0.00,,,0.00,WUHU216HW,2013-10-21 01:22:00,
2013-10-20 18:27:00,73.3,45.3,29.87,NE,45,1.3,1.3,37,0.00,,,0.00,WUHU216HW,2013-10-21 01:27:00,
2013-10-20 18:32:00,72.7,46.3,29.87,North,0,0.7,1.3,39,0.00,,,0.00,WUHU216HW,2013-10-21 01:32:00,
2013-10-20 18:37:00,72.2,46.5,29.88,North,0,1.3,1.3,40,0.00,,,0.00,WUHU216HW,2013-10-21 01:37:00,
2013-10-20 18:42:00,71.8,46.3,29.88,North,0,0.0,1.3,40,0.00,,,0.00,WUHU216HW,2013-10-21 01:42:00,
2013-10-20 18:47:00,71.3,46.4,29.88,North,0,0.2,0.9,41,0.00,,,0.00,WUHU216HW,2013-10-21 01:47:00,
2013-10-20 18:52:00,70.7,46.4,29.88,NNE,23,0.0,0.4,42,0.00,,,0.00,WUHU216HW,2013-10-21 01:52:00,
2013-10-20 18:57:00,70.2,46.0,29.88,NW,315,0.4,0.4,42,0.00,,,0.00,WUHU216HW,2013-10-21 01:57:00,
2013-10-20 19:02:00,69.7,45.5,29.88,North,0,0.2,0.4,42,0.00,,,0.00,WUHU216HW,2013-10-21 02:02:00,
2013-10-20 19:07:00,69.1,45.6,29.88,North,0,0.0,0.2,43,0.00,,,0.00,WUHU216HW,2013-10-21 02:07:00,
2013-10-20 19:12:00,68.8,45.9,29.88,North,0,0.0,0.2,44,0.00,,,0.00,WUHU216HW,2013-10-21 02:12:00,
2013-10-20 19:17:00,68.4,44.9,29.88,North,0,0.0,0.2,43,0.00,,,0.00,WUHU216HW,2013-10-21 02:17:00,
2013-10-20 19:22:00,68.0,44.7,29.88,North,0,0.4,0.4,43,0.00,,,0.00,WUHU216HW,2013-10-21 02:22:00,
2013-10-20 19:27:00,67.5,44.1,29.88,North,0,0.0,0.4,43,0.00,,,0.00,WUHU216HW,2013-10-21 02:27:00,
2013-10-20 19:32:00,67.0,44.3,29.88,WNW,293,0.0,0.0,44,0.00,,,0.00,WUHU216HW,2013-10-21 02:32:00,
2013-10-20 19:37:00,66.6,44.6,29.88,WNW,293,0.0,0.0,45,0.00,,,0.00,WUHU216HW,2013-10-21 02:37:00,
2013-10-20 19:42:00,66.2,44.2,29.88,NW,315,0.0,0.0,45,0.00,,,0.00,WUHU216HW,2013-10-21 02:42:00,
2013-10-20 19:47:00,65.7,44.3,29.88,NNW,338,0.0,0.4,46,0.00,,,0.00,WUHU216HW,2013-10-21 02:47:00,
2013-10-20 19:52:00,65.3,43.9,29.88,NNW,338,0.0,0.4,46,0.00,,,0.00,WUHU216HW,2013-10-21 02:52:00,
2013-10-20 19:57:00,65.0,44.2,29.89,NNW,338,0.0,0.0,47,0.00,,,0.00,WUHU216HW,2013-10-21 02:57:00,
2013-10-20 20:02:00,64.4,44.2,29.89,NNW,338,0.2,0.2,48,0.00,,,0.00,WUHU216HW,2013-10-21 03:02:00,
2013-10-20 20:07:00,63.9,44.3,29.89,North,0,0.0,0.7,49,0.00,,,0.00,WUHU216HW,2013-10-21 03:07:00,
2013-10-20 20:12:00,63.7,44.7,29.89,North,0,0.0,0.7,50,0.00,,,0.00,WUHU216HW,2013-10-21 03:12:00,
2013-10-20 20:17:00,63.2,44.2,29.89,North,0,0.2,0.2,50,0.00,,,0.00,WUHU216HW,2013-10-21 03:17:00,
2013-10-20 20:22:00,62.8,44.4,29.89,NNE,23,0.4,0.9,51,0.00,,,0.00,WUHU216HW,2013-10-21 03:22:00,
2013-10-20 20:27:00,62.5,44.1,29.89,NNE,23,0.0,0.9,51,0.00,,,0.00,WUHU216HW,2013-10-21 03:27:00,
2013-10-20 20:32:00,62.1,44.2,29.89,NNE,23,0.0,0.4,52,0.00,,,0.00,WUHU216HW,2013-10-21 03:32:00,
2013-10-20 20:37:00,61.7,43.9,29.89,NNE,23,0.0,0.4,52,0.00,,,0.00,WUHU216HW,2013-10-21 03:37:00,
2013-10-20 20:42:00,61.4,44.1,29.89,NNE,23,0.0,0.4,53,0.00,,,0.00,WUHU216HW,2013-10-21 03:42:00,
2013-10-20 20:47:00,61.0,43.7,29.89,East,90,0.7,0.9,53,0.00,,,0.00,WUHU216HW,2013-10-21 03:47:00,
2013-10-20 20:52:00,60.7,43.9,29.89,East,90,0.4,0.9,54,0.00,,,0.00,WUHU216HW,2013-10-21 03:52:00,
2013-10-20 20:57:00,60.3,43.6,29.89,NNE,23,1.1,1.1,54,0.00,,,0.00,WUHU216HW,2013-10-21 03:57:00,
2013-10-20 21:01:00,60.1,43.4,29.89,NNE,23,0.4,1.1,54,0.00,,,0.00,WUHU216HW,2013-10-21 04:01:00,
2013-10-20 21:06:00,59.8,43.6,29.89,NE,45,0.0,1.1,55,0.00,,,0.00,WUHU216HW,2013-10-21 04:06:00,
2013-10-20 21:11:00,59.4,43.7,29.90,NNE,23,0.0,0.4,56,0.00,,,0.00,WUHU216HW,2013-10-21 04:11:00,
2013-10-20 21:16:00,59.0,43.3,29.90,NNE,23,0.0,0.0,56,0.00,,,0.00,WUHU216HW,2013-10-21 04:16:00,
2013-10-20 21:21:00,58.7,43.5,29.90,NE,45,0.0,0.4,57,0.00,,,0.00,WUHU216HW,2013-10-21 04:21:00,
2013-10-20 21:26:00,58.5,43.3,29.90,NE,45,0.0,0.4,57,0.00,,,0.00,WUHU216HW,2013-10-21 04:26:00,
2013-10-20 21:31:00,58.1,43.5,29.90,NE,45,0.0,0.4,58,0.00,,,0.00,WUHU216HW,2013-10-21 04:31:00,
2013-10-20 21:36:00,58.0,43.3,29.90,NNE,23,0.0,0.4,58,0.00,,,0.00,WUHU216HW,2013-10-21 04:36:00,
2013-10-20 21:41:00,57.6,42.9,29.90,NNE,23,0.2,0.4,58,0.00,,,0.00,WUHU216HW,2013-10-21 04:41:00,
2013-10-20 21:46:00,57.2,43.1,29.90,NNE,23,0.2,0.4,59,0.00,,,0.00,WUHU216HW,2013-10-21 04:46:00,
2013-10-20 21:51:00,57.1,42.9,29.90,NNE,23,0.2,0.4,59,0.00,,,0.00,WUHU216HW,2013-10-21 04:51:00,
2013-10-20 21:56:00,56.9,43.2,29.90,NNE,23,0.0,0.2,60,0.00,,,0.00,WUHU216HW,2013-10-21 04:56:00,
2013-10-20 22:01:00,56.5,42.8,29.90,NNE,23,0.4,0.4,60,0.00,,,0.00,WUHU216HW,2013-10-21 05:01:00,
2013-10-20 22:06:00,56.3,43.0,29.90,NNE,23,0.0,0.4,61,0.00,,,0.00,WUHU216HW,2013-10-21 05:06:00,
2013-10-20 22:11:00,56.2,42.9,29.91,NE,45,0.2,0.7,61,0.00,,,0.00,WUHU216HW,2013-10-21 05:11:00,
2013-10-20 22:16:00,55.8,42.9,29.90,NE,45,0.4,0.7,62,0.00,,,0.00,WUHU216HW,2013-10-21 05:16:00,
2013-10-20 22:21:00,55.6,42.8,29.90,ENE,68,0.4,0.4,62,0.00,,,0.00,WUHU216HW,2013-10-21 05:21:00,
2013-10-20 22:26:00,55.4,43.4,29.90,ENE,68,0.7,0.7,64,0.00,,,0.00,WUHU216HW,2013-10-21 05:26:00,
2013-10-20 22:31:00,55.1,43.1,29.90,East,90,1.1,1.1,64,0.00,,,0.00,WUHU216HW,2013-10-21 05:31:00,
2013-10-20 22:36:00,55.1,43.1,29.90,East,90,0.7,1.1,64,0.00,,,0.00,WUHU216HW,2013-10-21 05:36:00,
2013-10-20 22:41:00,54.7,42.8,29.90,East,90,1.3,1.3,64,0.00,,,0.00,WUHU216HW,2013-10-21 05:41:00,
2013-10-20 22:46:00,54.5,43.0,29.90,SE,135,0.7,1.3,65,0.00,,,0.00,WUHU216HW,2013-10-21 05:46:00,
2013-10-20 22:51:00,54.5,43.0,29.90,SE,135,0.7,1.3,65,0.00,,,0.00,WUHU216HW,2013-10-21 05:51:00,
2013-10-20 22:56:00,54.4,42.9,29.90,SE,135,0.2,0.7,65,0.00,,,0.00,WUHU216HW,2013-10-21 05:56:00,
2013-10-20 23:01:00,54.4,42.9,29.91,NE,45,0.4,0.7,65,0.00,,,0.00,WUHU216HW,2013-10-21 06:01:00,
2013-10-20 23:06:00,54.0,42.5,29.91,NE,45,0.0,0.7,65,0.00,,,0.00,WUHU216HW,2013-10-21 06:06:00,
2013-10-20 23:11:00,53.8,42.3,29.91,NE,45,0.0,0.4,65,0.00,,,0.00,WUHU216HW,2013-10-21 06:11:00,
2013-10-20 23:16:00,53.6,42.1,29.91,NE,45,0.0,0.2,65,0.00,,,0.00,WUHU216HW,2013-10-21 06:16:00,
2013-10-20 23:21:00,53.5,41.9,29.91,NE,45,0.0,0.2,65,0.00,,,0.00,WUHU216HW,2013-10-21 06:21:00,
2013-10-20 23:26:00,53.3,42.2,29.91,North,0,0.0,0.2,66,0.00,,,0.00,WUHU216HW,2013-10-21 06:26:00,
2013-10-20 23:31:00,52.9,42.2,29.91,North,0,0.0,0.0,67,0.00,,,0.00,WUHU216HW,2013-10-21 06:31:00,
2013-10-20 23:36:00,52.9,42.2,29.91,North,0,0.0,0.0,67,0.00,,,0.00,WUHU216HW,2013-10-21 06:36:00,
2013-10-20 23:41:00,52.7,42.5,29.91,North,0,0.4,0.4,68,0.00,,,0.00,WUHU216HW,2013-10-21 06:41:00,
2013-10-20 23:46:00,52.4,42.1,29.91,ENE,68,0.4,0.4,68,0.00,,,0.00,WUHU216HW,2013-10-21 06:46:00,
2013-10-20 23:51:00,52.2,42.4,29.91,ENE,68,0.7,0.7,69,0.00,,,0.00,WUHU216HW,2013-10-21 06:51:00,
2013-10-20 23:56:00,52.2,42.4,29.91,ENE,68,0.2,0.7,69,0.00,,,0.00,WUHU216HW,2013-10-21 06:56:00,